Hourly Data Report for January 20, 2019

TORONTO CITY
ONTARIO
Current Station Operator: ECCC - MSC

43°40'00.000" N
79°24'00.000" W
112.50 m
6158355
71508
XTO

Download Data

Hourly Data (January 2019)
Hourly Data Report for January 20, 2019
TIME
LST
Temp Definition
°C
Dew Point Definition
°C
Rel Hum Definition
%
Precip. Amount Definition
mm

Wind Dir Definition
10's deg

Wind Spd Definition
km/h
Visibility Definition
km
Stn Press Definition
kPa
Hmdx Definition


Wind Chill Definition


Weather Definition


00:00 -15.2 -17.3 84 1.0 LegendMM LegendMM   99.91     LegendNANA
01:00 -15.3 -17.6 83 0.7 LegendMM LegendMM   99.78     LegendNANA
02:00 -15.6 -17.9 82 0.5 LegendMM LegendMM   99.75     LegendNANA
03:00 -16.2 -18.4 83 0.9 LegendMM LegendMM   99.65     LegendNANA
04:00 -16.4 -18.8 82 0.6 LegendMM LegendMM   99.56     LegendNANA
05:00 -16.2 -18.9 80 0.3 LegendMM LegendMM   99.60     LegendNANA
06:00 -16.1 -19.3 77 0.0 LegendMM LegendMM   99.51     LegendNANA
07:00 -15.7 -18.8 77 0.2 LegendMM LegendMM   99.62     LegendNANA
08:00 -15.7 -19.3 74 0.0 LegendMM LegendMM   99.69     LegendNANA
09:00 -15.4 -19.2 73 0.0 LegendMM LegendMM   99.79     LegendNANA
10:00 -15.5 -20.1 68 0.0 LegendMM LegendMM   99.83     LegendNANA
11:00 -16.7 -22.0 64 0.0 LegendMM LegendMM   99.91     LegendNANA
12:00 -15.6 -21.4 61 0.0 LegendMM LegendMM   99.92     LegendNANA
13:00 -14.9 -20.0 65 0.0 LegendMM LegendMM   99.91     LegendNANA
14:00 -14.3 -20.5 59 0.0 LegendMM LegendMM   99.92     LegendNANA
15:00 -14.6 -19.9 64 0.0 LegendMM LegendMM   99.99     LegendNANA
16:00 -14.8 -20.5 62 0.0 LegendMM LegendMM   100.13     LegendNANA
17:00 -15.9 -21.6 62 0.0 LegendMM LegendMM   100.23     LegendNANA
18:00 -17.0 -22.7 61 0.0 LegendMM LegendMM   100.36     LegendNANA
19:00 -17.7 -24.7 54 0.0 LegendMM LegendMM   100.50     LegendNANA
20:00 -18.8 -27.6 46 0.0 LegendMM LegendMM   100.55     LegendNANA
21:00 -20.1 -28.2 48 0.2 LegendMM LegendMM   100.63     LegendNANA
22:00 -21.0 -28.3 52 0.0 LegendMM LegendMM   100.69     LegendNANA
23:00 -21.4 -28.7 52 0.0 LegendMM LegendMM   100.74     LegendNANA

Notes on Data Quality.

Legend

  • E = Estimated
  • M = Missing
  • NA = Not Available*
  • [empty] = Indicates an unobserved value
Date modified: